Regional Weather Roundup
Issued by NWS Green Bay, WI

Home | Current Version | Previous Version | Text Only | Print | Product List | Glossary On
Versions: 1 2 3 4 5 6 7 8 9 10 11 12 13 14 15 16 17 18 19 20 21 22 23 24 25 26 27 28 29 30 31 32 33 34 35 36 37 38 39 40 41 42 43 44 45 46 47 48 49 50
164
ASUS43 KGRB 230511
RWRGRB

NORTH-CENTRAL AND NORTHEAST WISCONSIN REGIONAL WEATHER ROUNDUP
NATIONAL WEATHER SERVICE GREEN BAY WI
1200 AM CDT SUN APR 23 2017

WIZ005-009-010>012-018-019-230600-
NORTH CENTRAL WISCONSIN

CITY           SKY/WX    TMP DP  RH WIND       PRES   REMARKS
IRONWOOD       CLEAR     44  38  79 CALM      30.06S
MANITOWISH WTR PTCLDY    51  32  48 N3        30.04F
ARBOR VITAE    CLEAR     47  33  59 SW3       30.03F
EAGLE RIVER    PTCLDY    46  30  54 SW6       30.03F
LAND O LAKES   PTCLDY    47  35  62 NW3       30.06F
RHINELANDER    CLEAR     51  33  50 SW8       30.06F
PHILLIPS       CLEAR     51  33  52 SW5       30.05F
ANTIGO         CLEAR     44  32  62 SW7       30.09S
TOMAHAWK       CLEAR     50  32  50 CALM      30.08S
MERRILL        CLEAR     49  33  54 CALM      30.09S
$$

WIZ013-073-230600-
NORTHEAST WISCONSIN

CITY           SKY/WX    TMP DP  RH WIND       PRES   REMARKS
IRON MOUNTAIN  CLEAR     54  29  38 W9        30.02S
MARINETTE      CLEAR     50  36  58 SW7       30.07R
OCONTO         CLEAR     49  32  51 SW5       30.08R
$$

WIZ017-030-035>037-045-230600-
CENTRAL WISCONSIN

CITY           SKY/WX    TMP DP  RH WIND       PRES   REMARKS
MEDFORD        CLEAR     48  33  56 SW6       30.09S
WAUSAU         CLEAR     48  32  53 CALM      30.08S
MOSINEE        CLEAR     45  34  65 SW6       30.11S
MARSHFIELD     CLEAR     49  31  49 W3        30.10S
WISC RAPIDS    CLEAR     43  33  68 CALM      30.12S
STEVENS POINT  CLEAR     38  31  75 CALM      30.12R
WAUPACA        CLEAR     45  34  66 CALM      30.11S
SHAWANO        CLEAR     51  32  48 CALM      30.10R
CLINTONVILLE   CLEAR     46  32  57 SW6       30.10R
WAUTOMA        CLEAR     38  32  79 CALM      30.12S
$$

WIZ038-039-048-051-230600-
FOX VALLEY

CITY           SKY/WX    TMP DP  RH WIND       PRES   REMARKS
NWS GREEN BAY  CLEAR     50  36  58 SW3       30.10S
APPLETON       CLEAR     46  32  57 SW8       30.10R
OSHKOSH        CLEAR     48  33  56 S8        30.11S
FOND DU LAC    CLEAR     45  35  68 S5        30.12S
$$

WIZ022-050-052-230600-
EAST CENTRAL WISCONSIN

CITY           SKY/WX    TMP DP  RH WIND       PRES   REMARKS
EPHRAIM        FAIR      55  29  37 SW12G18   30.05S
WASHINGTON ISL FAIR      52  31  45 SW15G23   30.04S
STURGEON BAY   CLEAR     53  31  42 SW12      30.08S
MANITOWOC      CLEAR     48  30  49 SW7       30.11F
SHEBOYGAN      CLEAR     42  31  64 SW5       30.12F
$$

LMZ563-521-522-541>543-230600-
LAKESHORE

STATION/POSITION TIME  TEMP    WIND        PRES    VSBY  WAVE
                       AIR SEA DIR/SP/G                  HT/PER
                 (UTC) (F)     (DEG/KT/KT) (MB)    (MI)  (FT/S)
SHEBOYGAN LKSHOR 0500   51     230/  9/ 11 1020.0F
KEWAUNEE LKSHORE 0448   51     240/  6/ 10 1018.5F
NORTHPORT PIER   0440   54     220/  6/ 11 1017.3S
N MID LAKE BUOY  0450   42 37  200/ 16/ 17 1018.4F         2/ 3
CHAMBERS ISLAND  0440   50     190/  6/ 15 1017.6R
MENOMINEE LKSHOR 0448   53     210/ 11/ 13 1017.2R
$$




USA.gov is the U.S. government's official web portal to all federal, state and local government web resources and services.